Location: Plainartige
(45.6866°N, 1.7993°E)
Time: 00:36:19
(UTC+00:00)

BEESAT - Pass Details

Date: 03 July 2022
Orbit: 700 x 706 km, 98.6° (Epoch: 16 August)

Event Time Altitude Azimuth Distance (km) Brightness Sun altitude
Rises 21:40:41 0° 1° (N) 3,106 ? -14.7°
Reaches altitude 10° 21:43:27 10° 345° (NNW) 2,184 ? -15.0°
Maximum altitude 21:46:52 20° 299° (WNW) 1,610 ? -15.3°
Drops below altitude 10° 21:50:16 10° 253° (WSW) 2,176 ? -15.6°
Sets 21:53:02 0° 236° (WSW) 3,091 ? -15.8°
